Weather History for KTYS - December, 2014

Change the Weather History Date:

Wednesday, December 31, 2014

  Actual Average Record
Temperature  
Mean Temperature 33 °F 38 °F  
Max Temperature 39 °F 47 °F 74 °F (1984)
Min Temperature 27 °F 30 °F -1 °F (1880)
Degree Days  
Heating Degree Days 32 27  
Month to date heating degree days 664 752  
Since 1 July heating degree days 1490 1433  
Cooling Degree Days 0 0  
Month to date cooling degree days 0 0  
Year to date cooling degree days 1486 1526  
Moisture  
Dew Point 23 °F    
Average Humidity 67    
Maximum Humidity 85    
Minimum Humidity 48    
Precipitation  
Precipitation 0.00 in 0.13 in 1.78 in (1924)
Month to date precipitation 4.24 4.50  
Year to date precipitation 41.67 47.86  
Snow  
Snow 0.00 in 0.10 in - ()
Month to date snowfall 0.0 0.8  
Since 1 July snowfall T 0.8  
Snow Depth 0.00 in    
Sea Level Pressure  
Sea Level Pressure 30.47 in    
Wind  
Wind Speed 5 mph (NNE)    
Max Wind Speed 10 mph    
Max Gust Speed 13 mph    
Visibility 10 miles    
Events      
T = Trace of Precipitation, MM = Missing Value Source: NWS Daily Summary

Daily Weather History Graph

Daily Weather History Graph

Search for Another Location

Airport or City:

Trip Planner

Search our weather history database for the weather conditions in past years. The results will help you decide how hot, cold, wet, or windy it might be!

Date:

Astronomy

Dec. 31, 2014 Rise Set
Actual Time 7:45 AM EST 5:32 PM EST
Civil Twilight 7:17 AM EST 6:00 PM EST
Nautical Twilight 6:45 AM EST 6:32 PM EST
Astronomical Twilight 6:14 AM EST 7:03 PM EST
Moon 2:18 PM EST 3:16 AM EST
Length of Visible Light 10h 43m
Length of Day
9h 46m
Waxing Gibbous, 80% of the Moon is Illuminated
Dec 31
Waxing Gibbous
Jan 4
Full
Jan 13
Last Quarter
Jan 20
New
Jan 26
First Quarter

Hourly Weather History & Observations

Time (EST) Temp. Windchill Dew Point Humidity Pressure Visibility Wind Dir Wind Speed Gust Speed Precip Events Conditions
12:53 AM 32.0 °F 24.8 °F 26.1 °F 79% 30.50 in 10.0 mi North 8.1 mph - N/A   Mostly Cloudy
1:53 AM 32.0 °F 26.4 °F 26.1 °F 79% 30.51 in 10.0 mi North 5.8 mph - N/A   Mostly Cloudy
2:53 AM 30.9 °F 24.3 °F 26.1 °F 82% 30.52 in 10.0 mi North 6.9 mph - N/A   Mostly Cloudy
3:53 AM 30.9 °F 24.3 °F 26.1 °F 82% 30.49 in 10.0 mi NE 6.9 mph - N/A   Mostly Cloudy
4:53 AM 30.9 °F 26.2 °F 24.1 °F 76% 30.46 in 10.0 mi North 4.6 mph - N/A   Mostly Cloudy
5:53 AM 30.9 °F 22.8 °F 24.1 °F 76% 30.46 in 10.0 mi NNE 9.2 mph - N/A   Clear
6:53 AM 30.0 °F 23.2 °F 23.0 °F 75% 30.48 in 10.0 mi North 6.9 mph - N/A   Clear
7:53 AM 28.9 °F 23.9 °F 21.9 °F 75% 30.51 in 10.0 mi North 4.6 mph - N/A   Scattered Clouds
8:53 AM 30.9 °F 24.3 °F 23.0 °F 72% 30.53 in 10.0 mi North 6.9 mph - 0.00 in   Scattered Clouds
9:53 AM 32.0 °F 24.8 °F 23.0 °F 69% 30.53 in 10.0 mi NE 8.1 mph - N/A   Overcast
10:53 AM 35.1 °F 29.3 °F 24.1 °F 64% 30.52 in 10.0 mi NNE 6.9 mph - N/A   Mostly Cloudy
11:53 AM 35.1 °F 28.6 °F 23.0 °F 61% 30.50 in 10.0 mi NNE 8.1 mph - N/A   Mostly Cloudy
12:53 PM 37.0 °F 32.4 °F 21.9 °F 54% 30.48 in 10.0 mi NNW 5.8 mph - N/A   Overcast
1:53 PM 37.0 °F 31.0 °F 23.0 °F 57% 30.47 in 10.0 mi North 8.1 mph - N/A   Overcast
2:53 PM 37.9 °F 34.4 °F 21.9 °F 53% 30.45 in 10.0 mi NNW 4.6 mph - N/A   Mostly Cloudy
3:53 PM 37.0 °F 32.4 °F 21.9 °F 54% 30.46 in 10.0 mi NNE 5.8 mph - N/A   Mostly Cloudy
4:53 PM 37.0 °F 32.4 °F 19.0 °F 48% 30.45 in 10.0 mi NNE 5.8 mph - N/A   Mostly Cloudy
5:53 PM 34.0 °F 29.8 °F 19.0 °F 54% 30.44 in 10.0 mi North 4.6 mph - N/A   Scattered Clouds
6:53 PM 32.0 °F - 21.0 °F 64% 30.44 in 10.0 mi Calm Calm - N/A   Partly Cloudy
7:53 PM 30.9 °F - 21.0 °F 67% 30.43 in 10.0 mi Calm Calm - 0.00 in   Partly Cloudy
8:53 PM 28.9 °F - 21.9 °F 75% 30.43 in 10.0 mi Calm Calm - N/A   Clear
9:53 PM 28.0 °F - 21.9 °F 78% 30.42 in 10.0 mi Calm Calm - N/A   Partly Cloudy
10:53 PM 27.0 °F - 21.9 °F 81% 30.42 in 10.0 mi Calm Calm - N/A   Clear
11:53 PM 27.0 °F - 21.9 °F 81% 30.42 in 10.0 mi Calm Calm - N/A   Clear